This demonstration page uses our WeatherBlox Daily Observations layout. Learn more.

Left ArrowRight Arrow

Hourly Observations for June 19, 2021

Temp ( °F °C ) Dew Point ( °F °C ) Humidity (%) Winds ( mph kmh ) Pressure ( in mb ) Visibility ( mi km ) Precip ( " mm )
12:53 am 00:53 Clear 76 24.4 68 20 77 77 SSW 6 9 30.03 1017 10 16 0.00 0.00
1:53 am 01:53 Clear 75 23.9 68 20 79 79 SSW 3 6 30.03 1017 10 16 0.00 0.00
2:53 am 02:53 Clear 73 22.8 68 20 84 84 Calm 30.04 1017 10 16 0.00 0.00
3:53 am 03:53 Clear 73 22.8 68 20 84 84 SSW 3 6 30.02 1017 10 16 0.00 0.00
4:53 am 04:53 Clear 72 22.2 68 20 87 87 S 3 6 30.01 1016 10 16 0.00 0.00
5:53 am 05:53 Mostly Cloudy 71 21.7 68 20 90 90 Calm 30.01 1016 10 16 0.00 0.00
6:53 am 06:53 Mostly Cloudy 69 20.6 67 19.4 93 93 NE 3 6 30.03 1017 10 16 0.00 0.00
7:53 am 07:53 Mostly Sunny 73 22.8 69 20.6 87 87 SW 3 6 30.04 1017 10 16 0.00 0.00
8:53 am 08:53 Sunny 76 24.4 70 21.1 82 82 S 3 6 30.04 1017 10 16 0.00 0.00
9:42 am 09:42 Cloudy 77 25 70 21.1 79 79 E 3 6 30.04 1017 10 16 0.00 0.00
9:53 am 09:53 Cloudy 77 25 69 20.6 77 77 VRB 3 6 30.05 1018 10 16 0.00 0.00
10:53 am 10:53 Mostly Cloudy 78 25.6 70 21.1 76 76 Calm 30.06 1018 10 16 0.00 0.00
11:53 am 11:53 Cloudy with Light Rain 74 23.3 70 21.1 88 88 S 9 15 30.09 1019 6 10 0.02 0.51
12:53 pm 12:53 Cloudy with Light Rain 74 23.3 70 21.1 88 88 SSE 8 13 30.07 1018 9 14 0.02 0.51
1:53 pm 13:53 Cloudy with Light Rain 73 22.8 67 19.4 81 81 SE 6 9 30.04 1017 10 16 0.01 0.25
2:53 pm 14:53 Cloudy with Light Rain 72 22.2 68 20 87 87 VRB 5 7 30.03 1017 7 11 0.04 1.02
3:53 pm 15:53 Cloudy with Light Rain 71 21.7 68 20 90 90 ENE 7 11 30.01 1016 7 11 0.06 1.52
4:53 pm 16:53 Cloudy with Light Rain 70 21.1 68 20 93 93 NE 8 13 29.97 1015 9 14 0.12 3.05
5:06 pm 17:06 Cloudy 70 21.1 69 20.6 97 97 NE 7 11 29.97 1015 10 16 0.02 0.51
5:53 pm 17:53 Mostly Cloudy with Light Rain 70 21.1 68 20 93 93 ENE 9 15 29.94 1014 10 16 0.04 1.02
6:08 pm 18:08 Cloudy with Rain 71 21.7 69 20.6 94 94 ENE 7 11 29.94 1014 6 10 0.01 0.25
6:15 pm 18:15 Cloudy with Rain 71 21.7 69 20.6 94 94 E 3 6 29.95 1014 2 3 0.02 0.51
6:23 pm 18:23 Cloudy with Heavy Rain 70 21.1 69 20.6 97 97 NE 9 15 29.93 1014 2 2 0.04 1.02
6:29 pm 18:29 Cloudy with Light Rain 70 21.1 69 20.6 97 97 NE 9 15 29.92 1013 3 5 0.05 1.27
6:41 pm 18:41 Cloudy with Light Rain 70 21.1 69 20.6 97 97 NE 8 13 29.92 1013 10 16 0.07 1.78
6:48 pm 18:48 Cloudy with Light Rain 70 21 70 21 100 100 NE 10 17 29.93 1013 9 14 0.09 2.29
6:53 pm 18:53 Cloudy with Light Rain 71 21.7 69 20.6 94 94 ENE 9 15 29.92 1013 5 8 0.09 2.29
7:01 pm 19:01 Cloudy with Heavy Rain 70 21.1 69 20.6 97 97 ENE 9 15 29.93 1014 3 5 0.02 0.51
7:53 pm 19:53 Cloudy with Mist and Fog 70 21.1 68 20 93 93 ENE 12 19 29.92 1013 3 5 0.11 2.79
8:53 pm 20:53 Cloudy with Light Rain 70 21.1 68 20 93 93 ENE 14 22 29.89 1012 7 11 0.08 2.03
9:53 pm 21:53 Cloudy with Nearby Thunderstorms 70 21.1 68 20 93 93 E 15 24 29.86 1011 4 6 0.06 1.52
10:02 pm 22:02 Cloudy with Nearby Thunderstorms 70 21.1 68 20 93 93 E 12 19 29.85 1011 3 4 0.01 0.25
10:04 pm 22:04 Cloudy with Heavy Rain 70 21.1 68 20 93 93 E 12 19 29.85 1011 3 4 0.01 0.25
10:06 pm 22:06 Cloudy with Rain 70 21.1 68 20 93 93 E 12 19 29.86 1011 3 5 0.01 0.25
10:10 pm 22:10 Cloudy with Nearby Thunderstorms 70 21.1 68 20 93 93 E 12 19 29.86 1011 3 5 0.02 0.51
10:15 pm 22:15 Cloudy with Nearby Thunderstorms 70 21.1 68 20 93 93 E 14 22 29.85 1011 3 4 0.02 0.51
10:23 pm 22:23 Cloudy with Nearby Thunderstorms 70 21.1 68 20 93 93 E 13 20 29.85 1011 3 4 0.03 0.76
10:26 pm 22:26 Cloudy with Heavy Rain 70 21.1 68 20 93 93 E 15 24 29.85 1011 3 5 0.04 1.02
10:29 pm 22:29 Cloudy with Heavy Rain 70 21.1 68 20 93 93 ENE 13 20 29.84 1011 3 4 0.04 1.02
10:39 pm 22:39 Cloudy with Nearby Thunderstorms 70 21.1 68 20 93 93 E 16 26 29.84 1011 3 5 0.06 1.52
10:53 pm 22:53 Cloudy with Rain 70 21.1 68 20 93 93 ESE 13 20 29.85 1011 5 8 0.07 1.78
11:22 pm 23:22 Cloudy with Light Rain 70 21.1 68 20 93 93 E 16 26 29.83 1010 6 10 0.05 1.27
11:28 pm 23:28 Cloudy with Rain 70 21.1 68 20 93 93 E 13 20 29.83 1010 4 6 0.05 1.27
11:40 pm 23:40 Cloudy with Heavy Rain 70 21.1 68 20 93 93 SW 5 7 29.85 1011 3 4 0.07 1.78
11:48 pm 23:48 Cloudy with Heavy Rain 70 21 70 21 100 100 VRB 3 6 29.86 1011 1 2 0.08 2.03
11:53 pm 23:53 Cloudy with Heavy Rain 70 21.1 69 20.6 97 97 undefined N/A 29.85 1011 1 2 0.09 2.29
11:59 pm 23:59 Cloudy with Light Rain 71 21.7 69 20.6 94 94 E 9 15 29.84 1011 3 5 0.01 0.25

Powered by AerisWeather